Wind_Speed
22 21 19 17 17 17 16 18 20 17 15 14 13 12 12 12 11 9 10 10 8 7 7 8 9 10 11 12 13 13 12 11 10 10 10 10 10 10 11 11 10 9 9 8 8 7 6 6 6
25 24 23 20 18 16 17 21 22 19 17 17 15 15 13 11 10 10 11 11 10 10 9 9 10 11 12 13 13 13 13 12 12 11 10 10 10 10 10 10 9 8 8 7 6 5 5 5 5
28 27 27 24 19 15 19 24 25 21 18 18 17 17 14 10 10 10 12 12 12 12 11 10 10 11 12 13 13 14 14 13 13 11 10 10 10 10 9 8 8 7 6 5 4 4 4 4 4
28 30 29 27 20 17 21 25 28 25 21 20 19 17 12 10 9 10 11 11 11 11 11 10 10 11 12 13 14 14 14 14 13 11 10 10 9 8 8 7 6 6 5 4 3 3 3 3 4
28 30 31 28 23 21 22 26 29 27 23 21 20 19 13 10 9 9 10 11 10 9 10 11 11 11 12 13 13 14 14 14 12 11 10 9 9 8 7 6 5 5 4 3 3 2 3 3 4
27 30 31 29 26 25 25 28 30 29 25 24 24 21 17 11 8 8 9 10 8 8 9 10 11 11 12 13 13 13 13 13 12 11 11 9 8 7 6 6 5 4 4 3 3 3 3 3 4
28 30 30 30 30 29 28 31 32 30 27 26 27 26 19 13 9 8 9 10 9 8 8 10 10 11 12 13 13 13 13 13 12 12 11 9 8 7 6 6 5 4 4 4 3 3 3 4 4
30 31 30 30 31 31 32 35 33 31 29 28 28 26 21 16 11 8 9 11 9 8 9 10 10 11 12 13 13 14 13 13 13 12 11 10 8 7 7 6 5 4 4 4 4 4 4 4 5
31 32 29 29 31 32 35 37 35 32 31 31 29 27 23 19 12 10 9 10 10 10 10 10 11 12 12 13 13 13 13 13 13 12 11 10 9 8 7 7 6 5 5 5 5 5 5 5 5
32 31 28 29 32 34 38 40 38 35 32 31 28 24 23 20 15 10 10 11 11 10 10 10 11 12 12 13 14 14 14 14 13 12 11 10 9 9 8 7 7 6 6 6 6 6 6 7 7
32 31 29 31 33 36 39 41 40 37 34 30 27 24 21 19 17 12 12 12 12 10 9 10 11 11 12 13 14 14 14 14 13 12 12 11 10 9 8 8 8 7 7 7 7 8 8 8 9
31 30 30 31 34 37 40 43 42 39 35 33 29 25 21 19 16 13 13 12 12 10 10 10 10 11 12 13 14 14 14 15 14 13 12 12 11 10 9 9 9 8 8 9 9 9 10 11 12
30 30 30 31 34 37 41 43 43 40 37 35 31 25 20 18 14 12 14 13 12 11 11 11 11 11 13 13 14 15 15 15 14 13 13 13 12 12 11 11 10 10 10 10 11 12 13 14 15
27 29 30 30 33 36 40 43 43 40 37 35 31 25 20 16 14 13 12 12 12 12 12 13 12 12 13 14 14 15 15 15 15 14 14 14 14 13 13 12 12 12 12 13 13 15 16 16 17
24 26 26 27 29 31 36 41 43 40 37 35 32 27 23 19 17 16 15 14 14 14 14 14 13 13 14 14 15 15 16 16 16 15 15 15 15 14 14 14 14 14 15 15 16 17 17 18 20
21 22 22 21 24 26 32 37 39 40 38 36 33 30 26 24 21 20 20 18 17 16 16 16 14 15 15 15 16 16 16 16 16 16 16 16 16 16 15 16 16 16 17 18 19 20 20 20 21
17 17 17 17 19 21 27 31 32 36 39 37 35 33 30 28 27 25 23 21 18 19 19 19 18 17 17 17 17 17 17 17 17 17 17 17 17 17 17 18 18 19 20 21 21 22 22 22 23
13 14 15 16 16 17 20 22 25 31 36 37 37 36 33 30 29 28 27 25 23 22 23 24 21 19 19 19 19 18 18 18 18 18 19 19 19 19 19 20 20 21 22 24 24 25 24 24 25
14 15 15 15 14 14 16 18 22 26 30 33 35 36 35 32 31 31 30 29 28 27 27 26 23 21 20 20 20 20 19 20 20 19 19 19 20 21 21 22 23 24 25 26 27 28 27 26 25
15 14 13 15 14 13 15 18 20 24 27 29 31 33 34 33 32 32 32 31 31 32 31 27 25 24 23 22 22 22 21 20 20 20 20 21 22 23 25 25 25 26 27 27 26 26 26 26 25
15 13 12 14 15 14 16 18 18 22 24 26 28 30 31 31 31 32 32 31 32 33 31 30 27 25 24 25 24 22 21 20 21 21 22 23 24 25 25 26 27 28 29 27 27 27 27 26 27
13 13 13 14 16 17 17 17 18 20 21 23 25 27 28 28 30 31 32 32 31 31 31 30 29 28 27 26 25 25 24 24 24 24 25 25 26 26 27 28 29 29 28 27 27 28 28 27 26
12 15 15 16 16 18 19 19 19 20 21 22 23 24 26 27 28 30 31 32 32 33 34 32 30 29 27 26 27 27 27 26 25 26 27 26 26 26 27 28 29 29 27 26 25 26 26 26 26
12 15 17 18 18 17 18 21 20 19 20 21 24 25 27 27 29 30 32 33 33 33 31 30 29 28 27 27 28 28 28 27 27 27 27 26 27 28 28 29 28 28 27 26 25 25 26 27 28
13 14 16 17 18 17 18 20 21 22 20 21 23 25 26 28 29 30 31 32 32 32 29 27 28 28 27 27 28 28 29 29 28 28 28 27 28 29 30 30 29 30 29 28 27 27 27 28 29
14 14 14 16 17 18 20 22 22 22 22 23 23 24 25 26 28 28 29 30 29 29 29 28 27 27 28 29 29 29 30 31 30 29 28 29 29 30 31 30 30 30 30 30 31 31 32 33 33
14 13 14 16 17 17 19 21 21 22 23 24 25 24 24 26 26 27 28 28 28 28 28 28 29 29 30 31 31 30 31 31 32 31 31 31 32 32 32 31 32 33 33 34 35 35 36 37 38
13 13 14 16 17 16 17 20 22 21 21 24 24 25 25 25 25 25 26 27 27 27 28 28 29 30 30 30 30 31 31 31 32 32 32 33 34 34 34 35 35 37 37 38 38 39 40 41 42
14 14 14 14 14 15 16 16 18 20 21 22 22 22 25 26 25 25 25 25 26 27 28 29 30 31 31 32 32 33 33 33 33 33 34 35 36 37 38 38 39 39 40 41 42 42 43 44 45
13 13 14 15 15 16 17 16 13 14 14 15 18 20 22 24 25 26 27 27 27 28 29 29 30 31 32 32 33 33 33 34 34 35 36 37 38 39 40 41 41 42 43 44 44 44 45 46 47
Wind_Direction
243 245 247 246 241 232 223 230 237 239 249 250 245 238 242 249 261 276 286 286 274 275 277 263 257 253 252 254 255 255 254 256 260 263 268 272 276 280 283 285 285 285 285 285 285 285 286 287 290
239 241 243 243 241 232 220 229 238 241 254 256 252 239 235 246 270 278 280 279 271 277 280 273 268 262 258 256 257 258 256 256 257 260 265 269 273 277 281 283 283 282 283 284 284 287 291 295 297
239 239 240 240 237 234 221 230 238 245 256 257 252 237 226 246 266 268 266 270 271 272 275 275 270 264 261 259 259 258 257 256 255 257 261 264 268 273 277 277 276 276 278 279 280 286 295 303 307
244 240 239 239 235 233 225 233 240 244 257 261 259 246 224 232 259 267 267 261 262 264 268 269 266 263 261 260 260 258 256 254 253 254 256 257 261 266 268 268 267 266 265 267 272 285 299 309 314
249 244 241 239 233 232 230 232 241 246 253 260 254 253 239 228 253 266 261 253 253 259 264 263 261 263 261 259 259 257 253 251 249 249 249 251 255 257 258 257 254 251 252 255 260 277 290 305 315
254 248 243 238 230 230 231 234 240 244 250 260 257 250 250 243 253 264 251 246 248 256 259 263 261 261 260 258 256 254 249 245 242 241 243 246 248 249 249 245 244 243 242 241 251 271 282 303 316
257 252 245 237 228 226 228 233 238 242 245 255 256 249 246 244 245 259 249 247 247 256 261 264 262 258 256 253 251 250 245 239 236 236 238 239 239 240 240 237 238 237 236 240 252 264 281 305 319
258 254 248 238 228 224 227 231 236 242 245 252 253 248 245 242 232 232 241 240 246 252 261 262 261 257 252 249 248 247 242 235 231 232 232 231 233 233 234 234 234 235 239 249 259 267 280 303 319
261 257 251 241 230 222 225 229 232 240 246 249 252 249 243 232 227 217 226 242 249 250 256 258 259 255 246 244 244 242 237 232 228 227 226 227 229 230 233 236 236 240 248 257 265 272 283 299 315
264 259 250 238 229 222 223 228 231 236 243 250 251 249 246 239 231 219 219 239 243 243 248 256 254 250 243 239 236 235 233 230 226 224 223 225 229 231 236 240 242 245 253 264 270 277 286 295 306
263 258 248 236 228 222 221 225 229 236 241 246 250 253 247 243 239 230 218 225 233 237 245 252 249 245 240 235 232 231 229 227 225 222 222 226 229 232 238 245 247 251 258 268 275 281 289 296 302
259 255 247 237 228 222 220 222 226 233 239 244 250 255 260 253 241 232 218 218 225 229 238 245 246 242 236 231 229 228 226 226 223 219 220 225 229 235 242 248 251 257 264 272 280 285 290 294 298
256 251 246 238 229 224 221 221 224 230 236 242 248 254 259 256 242 238 224 221 223 230 235 238 239 239 233 228 227 225 224 223 219 218 221 227 234 239 245 250 254 260 268 277 284 287 289 292 296
256 250 245 240 233 227 224 222 223 227 233 239 245 248 256 259 254 248 227 226 227 230 232 234 233 233 230 227 227 226 224 222 221 221 224 230 236 242 248 252 257 263 270 275 280 286 292 293 293
256 251 248 244 238 231 228 224 224 224 228 234 240 244 250 254 255 251 241 229 225 228 226 229 229 230 230 228 226 226 225 224 225 226 230 234 239 243 249 254 259 265 271 276 280 285 289 293 292
254 253 250 246 244 237 234 230 225 225 227 231 238 243 248 254 255 251 243 234 225 225 225 224 225 226 227 227 226 227 228 228 230 234 237 239 243 247 253 258 263 268 272 275 279 283 286 290 292
249 248 245 238 236 236 238 235 226 226 227 229 234 239 244 247 248 248 246 240 235 232 227 225 224 223 227 227 226 227 228 231 236 241 245 245 247 252 257 262 266 270 274 276 279 283 285 288 290
235 232 229 219 214 224 229 227 219 220 224 227 230 235 238 242 243 247 247 243 242 236 230 228 226 225 227 228 228 229 230 233 238 243 248 247 249 255 261 265 267 270 274 277 277 281 285 288 291
222 220 217 206 206 220 216 211 209 211 216 220 224 229 233 237 240 243 244 241 240 237 233 228 225 225 226 227 228 230 231 234 237 243 248 254 256 258 263 265 269 270 274 275 276 281 283 285 289
213 214 211 198 199 214 214 212 207 205 210 214 218 223 229 235 238 240 240 243 244 239 231 226 227 228 226 228 231 232 234 238 243 247 252 257 260 263 265 267 272 273 275 277 277 282 282 284 287
211 213 207 198 198 204 208 210 208 206 209 213 218 223 228 234 238 240 242 245 243 237 229 228 228 230 233 232 233 236 240 245 248 251 255 258 262 266 268 269 273 276 277 282 279 284 288 284 285
216 215 215 210 203 196 205 218 213 213 214 216 220 224 228 233 237 239 244 248 246 243 237 233 230 234 234 235 238 240 243 246 248 252 256 259 263 268 269 269 271 279 283 286 286 286 288 287 285
220 218 218 214 208 201 208 220 220 220 220 221 223 228 233 236 237 240 244 250 254 252 249 245 235 233 235 238 241 242 243 246 250 255 257 261 266 271 273 273 277 281 286 290 291 292 292 292 291
214 215 217 212 211 210 207 218 221 222 228 230 230 232 236 239 240 243 246 250 253 256 256 248 240 242 244 245 247 250 250 251 255 260 264 268 271 272 277 282 287 287 290 292 294 296 295 292 291
210 214 214 210 214 214 211 221 224 222 228 231 234 236 237 237 240 245 249 252 255 260 260 258 253 251 250 251 254 256 258 261 265 269 271 272 276 277 280 286 289 290 290 291 292 294 296 293 292
204 208 209 206 209 212 216 225 229 231 232 232 234 237 240 242 244 248 250 252 257 260 262 262 265 260 256 258 260 261 265 267 270 274 277 278 282 284 288 289 291 291 291 290 291 292 293 291 290
201 204 204 208 211 218 223 233 237 236 237 237 235 235 239 242 244 247 248 252 255 257 258 261 263 264 264 264 264 268 271 273 276 279 282 286 289 289 290 290 291 293 293 292 292 291 291 290 289
195 198 207 214 222 229 232 243 248 247 248 243 239 238 239 241 242 246 248 249 253 257 260 262 262 264 267 269 269 271 276 278 279 282 285 287 289 288 287 289 290 291 291 291 291 290 290 290 289
200 205 213 223 231 238 245 254 257 257 255 244 242 242 242 242 242 245 248 251 255 258 260 262 263 265 267 269 271 274 277 278 279 280 282 284 285 286 288 288 289 290 291 291 290 289 289 289 289
203 213 226 236 244 248 257 270 270 274 269 258 252 249 247 245 245 247 250 253 257 259 261 262 263 265 267 270 272 274 276 277 277 278 280 282 284 285 288 289 289 290 290 290 290 290 289 289 289
Height
5887 5888 5889 5890 5891 5892 5892 5892 5891 5891 5891 5891 5891 5892 5892 5894 5896 5900 5900 5900 5902 5903 5904 5904 5904 5905 5906 5906 5907 5908 5908 5909 5909 5910 5910 5910 5911 5911 5911 5911 5910 5910 5910 5909 5908 5908 5907 5907 5906
5883 5884 5885 5887 5888 5889 5890 5889 5888 5889 5889 5888 5888 5888 5889 5890 5893 5895 5897 5899 5900 5902 5902 5902 5903 5903 5904 5905 5906 5906 5907 5907 5908 5908 5908 5909 5909 5909 5909 5909 5909 5909 5908 5908 5907 5906 5906 5906 5905
5878 5879 5881 5883 5885 5887 5887 5886 5886 5886 5885 5884 5884 5883 5884 5887 5891 5893 5895 5897 5898 5899 5899 5900 5900 5901 5902 5903 5904 5904 5905 5906 5906 5906 5907 5907 5907 5908 5908 5908 5908 5908 5907 5907 5906 5906 5905 5905 5904
5873 5875 5876 5879 5882 5884 5883 5883 5882 5883 5883 5881 5881 5880 5880 5885 5888 5890 5892 5894 5895 5896 5897 5897 5898 5899 5899 5901 5901 5902 5903 5904 5904 5904 5905 5905 5906 5907 5907 5907 5907 5907 5907 5906 5906 5905 5904 5904 5903
5868 5869 5871 5874 5878 5880 5879 5879 5879 5880 5880 5878 5878 5876 5876 5880 5885 5887 5889 5890 5892 5893 5894 5895 5895 5896 5897 5898 5899 5900 5901 5902 5902 5903 5903 5904 5905 5905 5906 5906 5906 5906 5906 5905 5905 5904 5904 5903 5902
5863 5864 5866 5870 5874 5875 5875 5875 5875 5876 5877 5876 5874 5874 5875 5876 5880 5884 5886 5887 5889 5890 5891 5892 5892 5893 5894 5896 5897 5897 5898 5899 5900 5901 5902 5902 5903 5904 5905 5905 5905 5905 5905 5905 5904 5903 5903 5903 5902
5857 5858 5860 5864 5867 5870 5871 5870 5870 5871 5872 5872 5871 5870 5870 5872 5876 5881 5883 5884 5885 5887 5888 5889 5890 5891 5892 5893 5894 5895 5896 5897 5898 5899 5900 5901 5901 5902 5903 5904 5904 5904 5904 5903 5903 5902 5902 5901 5901
5849 5851 5854 5858 5861 5865 5865 5864 5865 5865 5866 5866 5867 5867 5868 5868 5871 5876 5879 5880 5882 5884 5886 5887 5888 5888 5889 5890 5891 5893 5894 5895 5896 5897 5898 5899 5900 5901 5902 5902 5902 5903 5903 5902 5902 5901 5901 5900 5899
5841 5845 5848 5852 5855 5859 5858 5858 5859 5859 5860 5861 5862 5864 5864 5864 5867 5872 5875 5878 5880 5882 5883 5884 5885 5886 5887 5888 5889 5890 5891 5892 5893 5894 5896 5897 5898 5899 5900 5901 5901 5901 5901 5901 5901 5900 5899 5899 5898
5834 5837 5842 5845 5847 5851 5851 5851 5852 5854 5855 5856 5857 5859 5861 5860 5863 5868 5872 5875 5877 5879 5880 5882 5883 5884 5884 5885 5887 5888 5889 5890 5891 5892 5894 5895 5896 5897 5898 5899 5899 5899 5899 5899 5899 5898 5898 5897 5896
5826 5829 5833 5835 5838 5842 5844 5845 5846 5848 5850 5851 5853 5854 5856 5857 5858 5864 5869 5871 5874 5877 5878 5879 5880 5881 5882 5883 5884 5885 5887 5888 5889 5890 5892 5893 5894 5895 5896 5896 5897 5897 5897 5897 5897 5896 5896 5895 5894
5818 5821 5824 5827 5830 5833 5836 5839 5841 5842 5845 5847 5849 5851 5852 5854 5855 5860 5865 5868 5871 5874 5875 5877 5878 5878 5879 5880 5882 5883 5884 5885 5886 5888 5889 5890 5891 5892 5893 5894 5894 5895 5895 5895 5894 5894 5893 5892 5891
5811 5814 5816 5819 5822 5825 5828 5831 5834 5837 5840 5842 5845 5849 5853 5853 5854 5858 5863 5866 5868 5871 5873 5874 5875 5875 5876 5878 5879 5880 5881 5883 5884 5885 5887 5888 5889 5890 5890 5891 5891 5892 5892 5892 5891 5891 5890 5889 5888
5806 5807 5809 5812 5815 5818 5822 5826 5829 5833 5835 5838 5841 5846 5850 5852 5854 5856 5860 5864 5866 5868 5870 5871 5872 5873 5873 5875 5876 5877 5879 5880 5881 5883 5884 5885 5886 5887 5887 5888 5888 5888 5888 5888 5888 5887 5886 5884 5883
5800 5802 5804 5807 5810 5812 5815 5818 5823 5828 5831 5834 5838 5842 5847 5849 5851 5853 5857 5860 5863 5865 5867 5868 5870 5870 5871 5872 5873 5875 5876 5877 5879 5880 5881 5882 5883 5883 5884 5884 5884 5884 5884 5883 5883 5883 5882 5881 5879
5795 5797 5800 5803 5805 5807 5810 5812 5819 5823 5827 5831 5834 5838 5841 5844 5846 5849 5852 5855 5858 5861 5863 5865 5867 5868 5868 5869 5870 5872 5873 5874 5875 5876 5877 5878 5879 5880 5880 5880 5880 5880 5880 5879 5879 5878 5878 5876 5874
5791 5793 5795 5798 5800 5801 5803 5805 5812 5817 5821 5826 5830 5833 5836 5839 5840 5844 5847 5850 5853 5856 5859 5861 5863 5864 5865 5866 5867 5868 5869 5871 5871 5872 5873 5874 5874 5875 5875 5875 5875 5875 5875 5874 5874 5873 5872 5871 5869
5788 5789 5791 5793 5795 5796 5797 5800 5805 5809 5814 5820 5824 5827 5831 5834 5836 5839 5842 5846 5849 5851 5852 5855 5857 5858 5860 5861 5863 5864 5865 5866 5867 5868 5868 5868 5869 5870 5870 5870 5870 5870 5869 5868 5868 5867 5866 5865 5863
5784 5785 5787 5789 5791 5792 5793 5796 5799 5803 5807 5812 5817 5822 5825 5829 5832 5835 5837 5840 5843 5845 5846 5847 5850 5852 5855 5856 5858 5860 5861 5861 5862 5863 5862 5863 5863 5864 5864 5864 5864 5864 5863 5862 5861 5861 5859 5858 5857
5780 5782 5783 5786 5788 5789 5790 5792 5795 5798 5803 5807 5811 5816 5820 5824 5827 5829 5831 5835 5837 5839 5839 5840 5842 5845 5848 5850 5852 5854 5855 5856 5857 5858 5858 5858 5858 5858 5858 5858 5858 5858 5856 5855 5855 5854 5853 5852 5850
5777 5779 5780 5783 5784 5786 5788 5789 5792 5795 5799 5803 5807 5810 5815 5818 5821 5824 5827 5829 5829 5828 5830 5831 5835 5837 5840 5843 5845 5848 5850 5851 5851 5852 5852 5852 5851 5852 5852 5852 5852 5851 5850 5848 5848 5847 5846 5845 5843
5774 5776 5778 5779 5781 5783 5786 5787 5790 5792 5796 5800 5803 5806 5810 5813 5816 5819 5821 5822 5822 5824 5826 5825 5827 5831 5834 5836 5839 5841 5843 5844 5845 5845 5845 5846 5846 5846 5846 5845 5844 5844 5843 5842 5841 5840 5839 5837 5836
5771 5773 5775 5776 5778 5781 5783 5785 5788 5790 5793 5797 5799 5802 5806 5809 5811 5814 5816 5817 5818 5819 5820 5820 5822 5824 5828 5830 5832 5834 5835 5836 5837 5838 5838 5838 5838 5838 5838 5837 5837 5836 5835 5834 5833 5832 5831 5830 5829
5768 5770 5771 5774 5776 5779 5782 5783 5785 5788 5791 5793 5796 5799 5801 5804 5807 5809 5811 5812 5814 5814 5814 5815 5816 5818 5821 5823 5825 5827 5828 5829 5830 5830 5830 5830 5831 5831 5831 5830 5829 5828 5827 5826 5825 5824 5823 5822 5821
5765 5767 5769 5771 5774 5777 5779 5780 5782 5784 5787 5789 5792 5794 5796 5799 5802 5804 5806 5807 5808 5809 5809 5810 5810 5812 5815 5817 5818 5820 5821 5821 5822 5822 5822 5823 5823 5822 5822 5821 5821 5819 5818 5818 5817 5816 5815 5814 5813
5763 5765 5768 5770 5772 5775 5776 5777 5779 5781 5782 5784 5786 5789 5791 5794 5796 5798 5799 5802 5803 5804 5805 5805 5806 5807 5809 5811 5812 5813 5814 5814 5814 5814 5814 5815 5815 5814 5814 5813 5813 5812 5810 5810 5809 5808 5806 5805 5803
5761 5763 5766 5768 5769 5771 5773 5774 5775 5775 5777 5779 5781 5784 5786 5789 5790 5792 5794 5796 5797 5799 5800 5801 5801 5803 5804 5805 5807 5807 5807 5807 5807 5808 5808 5807 5807 5807 5806 5806 5804 5803 5802 5801 5800 5798 5797 5795 5793
5760 5762 5764 5765 5767 5768 5771 5771 5771 5771 5772 5774 5776 5779 5781 5783 5785 5787 5789 5790 5792 5793 5794 5795 5796 5797 5797 5798 5799 5800 5800 5800 5800 5800 5800 5800 5799 5799 5798 5797 5796 5794 5793 5791 5789 5788 5785 5783 5781
5759 5760 5761 5763 5765 5766 5767 5770 5767 5767 5768 5769 5771 5773 5775 5777 5779 5781 5783 5785 5786 5787 5788 5789 5790 5791 5791 5792 5792 5792 5793 5793 5793 5793 5793 5792 5791 5790 5789 5787 5786 5784 5782 5780 5778 5776 5773 5771 5768
5757 5759 5760 5762 5763 5763 5764 5767 5763 5763 5762 5763 5766 5768 5770 5772 5774 5776 5777 5778 5780 5781 5782 5783 5783 5784 5784 5784 5785 5785 5785 5785 5785 5785 5784 5784 5782 5781 5779 5777 5775 5773 5771 5768 5766 5763 5761 5758 5755